Location: Ariel
(45.9570°N, 122.5700°W)
Time: 13:22:11
(UTC-07:00)

Vanguard 2 - Visible Passes

Search period start: 16 July 2019 00:00
Search period end: 26 July 2019 00:00
Orbit: 553 x 2938 km, 32.9° (Epoch: 15 July)

Date Brightness Start Highest point End Pass type
(mag) Time Alt. Az. Time Alt. Az. Time Alt. Az.
16 Jul 10.1 01:20:46 14° ESE 01:20:46 14° ESE 01:21:48 10° ESE visible
16 Jul 9.0 03:22:08 24° SSW 03:24:09 28° S 03:29:00 10° SE visible
16 Jul 10.7 23:15:53 10° SSW 23:20:20 17° S 23:20:20 17° S visible
17 Jul 9.7 01:37:08 22° SE 01:37:08 22° SE 01:39:50 10° ESE visible
17 Jul 9.0 03:38:30 20° SW 03:41:51 27° SSW 03:46:38 10° SE visible
17 Jul 10.9 21:30:51 10° SSE 21:32:41 10° SE 21:34:26 10° SE visible
17 Jul 10.3 23:32:06 10° SSW 23:52:03 - E 23:40:05 23° S visible
18 Jul 9.4 01:41:39 10° SW 01:53:24 29° SSE 01:57:43 10° ESE visible
18 Jul 9.1 03:54:46 15° WSW 03:59:30 25° SSW 04:04:08 10° SE visible
18 Jul 10.8 21:42:51 10° S 21:50:26 15° SSE 21:56:49 10° ESE visible
18 Jul 9.9 23:48:50 10° SW 00:00:04 29° SSE 00:00:10 29° SSE visible
19 Jul 9.2 01:59:18 10° WSW 02:09:30 34° S 02:15:31 10° ESE visible
19 Jul 9.2 04:11:01 10° WSW 04:17:04 22° SSW 04:21:26 10° SSE visible
19 Jul 10.6 21:57:58 10° SSW 22:08:11 21° SSE 22:16:17 10° ESE visible
20 Jul 9.8 00:05:57 10° SW 00:17:54 34° S 00:25:55 10° ESE visible
20 Jul 9.2 02:17:06 10° WSW 02:26:53 35° S 02:33:12 10° SE visible
20 Jul 9.4 04:29:20 10° WSW 04:34:33 18° SSW 04:38:30 10° SSE visible
20 Jul 10.4 22:14:00 10° SSW 22:25:57 26° SSE 22:35:00 10° ESE visible
21 Jul 9.6 00:23:20 10° SW 00:35:43 37° S 00:43:50 10° ESE visible
21 Jul 9.2 02:35:01 10° WSW 02:44:34 33° SSW 02:50:48 10° SE visible
21 Jul 9.6 04:48:02 10° WSW 04:51:56 14° SW 04:55:07 10° S visible
21 Jul 10.3 22:30:35 10° SSW 22:43:45 31° SSE 22:53:21 10° ESE visible
22 Jul 9.6 00:40:55 10° WSW 00:53:31 40° S 01:01:41 10° ESE visible
22 Jul 9.3 02:53:02 10° WSW 03:02:11 31° SSW 03:08:15 10° SE visible
22 Jul 9.8 05:08:12 10° SW 05:09:14 10° SW 05:10:13 10° SSW visible
22 Jul 10.1 22:47:34 10° SW 23:01:33 36° SSE 23:11:30 10° ESE visible
23 Jul 9.5 00:58:40 10° WSW 01:11:18 41° S 01:19:25 10° ESE visible
23 Jul 9.4 03:11:11 10° WSW 03:19:44 27° SSW 03:25:33 10° SSE visible
23 Jul 10.0 23:04:50 10° SW 23:19:21 40° S 23:29:29 10° ESE visible
24 Jul 9.5 01:16:31 10° WSW 01:29:03 41° S 01:37:05 10° SE visible
24 Jul 9.6 03:29:31 10° WSW 03:38:39 22° SSW 03:42:37 10° SSE visible
24 Jul 10.6 21:12:40 10° SSW 21:26:50 32° SSE 21:38:10 10° E visible
24 Jul 9.9 23:22:19 10° WSW 23:37:11 44° S 23:46:52 12° ESE visible
25 Jul 9.5 01:34:29 10° WSW 01:46:44 39° SSW 01:48:12 37° S visible
25 Jul 10.0 03:48:08 10° WSW 03:58:37 12° S 03:59:18 10° S visible
25 Jul 10.5 21:29:29 10° SW 21:44:33 37° SSE 21:56:24 10° E visible
